TimeEDT,TemperatureF,Dew PointF,Humidity,Sea Level PressureIn,VisibilityMPH,Wind Direction,Wind SpeedMPH,Gust SpeedMPH,PrecipitationIn,Events,Conditions,WindDirDegrees,DateUTC
12:00 AM,44.6,39.2,81,29.93,15.0,West,10.4,-,N/A,Rain,Light Rain Showers,260,2012-10-07 04:00:00
12:43 AM,42.8,39.2,87,29.94,15.0,West,9.2,-,N/A,,Mostly Cloudy,260,2012-10-07 04:43:00
1:00 AM,42.8,39.2,87,29.95,15.0,West,8.1,-,N/A,,Mostly Cloudy,260,2012-10-07 05:00:00
1:16 AM,42.8,39.2,87,29.95,15.0,West,9.2,-,N/A,Rain,Light Rain Showers,270,2012-10-07 05:16:00
2:00 AM,43,38,76,29.97,15,West,11.5,,,Rain,Light Rain Showers,280,2012-10-07 06:00:00
2:00 AM,42.8,37.4,81,29.96,15.0,West,10.4,-,N/A,,Mostly Cloudy,280,2012-10-07 06:00:00
3:00 AM,42.8,35.6,76,29.97,15.0,NW,11.5,-,N/A,,Mostly Cloudy,320,2012-10-07 07:00:00
4:00 AM,39.2,35.6,87,29.99,15.0,WNW,6.9,-,N/A,,Mostly Cloudy,300,2012-10-07 08:00:00
5:00 AM,39.2,33.8,81,30.04,15.0,West,9.2,-,N/A,,Mostly Cloudy,270,2012-10-07 09:00:00
6:00 AM,37.4,32.0,81,30.05,15.0,WNW,6.9,-,N/A,,Partly Cloudy,290,2012-10-07 10:00:00
7:00 AM,35.6,32.0,87,30.06,15.0,WNW,8.1,-,N/A,,Scattered Clouds,300,2012-10-07 11:00:00
8:00 AM,39,32,68,30.06,15,NW,10.4,,,,Partly Cloudy,310,2012-10-07 12:00:00
8:00 AM,39.2,32.0,75,30.06,15.0,NW,10.4,-,N/A,,Mostly Cloudy,320,2012-10-07 12:00:00
9:00 AM,39.2,32.0,75,30.07,15.0,NNW,9.2,-,N/A,,Scattered Clouds,330,2012-10-07 13:00:00
10:00 AM,41.0,32.0,70,30.07,15.0,NW,10.4,-,N/A,,Scattered Clouds,310,2012-10-07 14:00:00
11:00 AM,42.8,32.0,66,30.08,15.0,NNW,8.1,-,N/A,,Scattered Clouds,330,2012-10-07 15:00:00
12:00 PM,44.6,32.0,61,30.09,15.0,West,4.6,-,N/A,,Partly Cloudy,270,2012-10-07 16:00:00
1:00 PM,46.4,33.8,62,30.08,15.0,WNW,4.6,-,N/A,,Partly Cloudy,290,2012-10-07 17:00:00
2:00 PM,47,31,41,30.06,15,West,3.5,,,,Scattered Clouds,270,2012-10-07 18:00:00
2:00 PM,46.4,30.2,53,30.06,15.0,WNW,4.6,-,N/A,,Partly Cloudy,290,2012-10-07 18:00:00
3:00 PM,46.4,28.4,50,30.05,15.0,WNW,5.8,-,N/A,,Scattered Clouds,290,2012-10-07 19:00:00
4:00 PM,46.4,28.4,50,30.04,15.0,NNW,4.6,-,N/A,,Scattered Clouds,330,2012-10-07 20:00:00
5:00 PM,46.4,30.2,53,30.04,15.0,West,4.6,-,N/A,,Mostly Cloudy,260,2012-10-07 21:00:00
6:00 PM,46.4,32.0,57,30.04,15.0,West,3.5,-,N/A,,Mostly Cloudy,270,2012-10-07 22:00:00
7:00 PM,41.0,33.8,76,30.04,15.0,SE,3.5,-,N/A,,Mostly Cloudy,130,2012-10-07 23:00:00
8:00 PM,44,32,51,30.05,15,ESE,2.3,,,,Mostly Cloudy,120,2012-10-08 00:00:00
8:00 PM,44.6,32.0,61,30.05,15.0,ESE,2.3,-,N/A,,Mostly Cloudy,110,2012-10-08 00:00:00
9:00 PM,42.8,32.0,66,30.06,15.0,NNE,4.6,-,N/A,,Overcast,20,2012-10-08 01:00:00
10:00 PM,42.8,32.0,66,30.07,15.0,NNE,4.6,-,N/A,,Mostly Cloudy,20,2012-10-08 02:00:00
11:00 PM,41.0,30.2,65,30.08,15.0,North,6.9,-,N/A,,Mostly Cloudy,360,2012-10-08 03:00:00